Terug naar catalogus

DELTA 1 DEB

ActiefPO
NORAD 12427·DEBRIS·🇺🇸 United States

Gelanceerd Mar 5, 1978 vanaf Vandenberg Space Force Base

Loading…

Volgende Passages (komende 24 uur)

TLE

VersSource: Space-Track

Epoch: Sep 14, 2026, 11:53 UTC

1 12427U 78026ET  26257.49524063  .00001561  00000-0  43990-3 0  9995
2 12427  99.1589  90.4545 0100372  48.3632 334.2577 14.44486843384793

Volg DELTA 1 DEB in realtime met AllMySat

Download on the App Store